Temp
16 16 16 16 16 16 16 16 16 16 17 17 17 17 17 17 17 17 16 15 16 16 16 16 16 16 16 16 16 16 15 15 15 15 15 15 15 15 15 15 15 15 15
16 16 16 16 16 16 16 16 16 16 16 16 17 16 17 17 17 17 17 17 17 17 17 16 16 16 16 16 15 15 15 15 15 15 15 16 15 15 15 14 15 15 15
16 16 16 16 16 16 16 16 16 16 16 16 16 16 16 16 16 17 17 16 16 16 16 15 16 16 16 15 15 15 15 15 15 14 14 15 14 14 14 14 14 15 15
16 16 16 16 16 16 16 16 16 16 16 16 16 16 16 16 16 16 16 16 15 15 15 15 15 15 15 15 15 15 14 14 14 14 14 14 15 14 14 14 14 15 15
16 16 16 16 16 16 16 16 16 16 16 16 16 16 16 16 15 16 16 15 15 15 15 15 15 15 15 14 14 14 14 14 14 14 14 14 15 15 14 14 14 15 15
16 16 16 16 16 16 16 16 16 16 16 16 16 16 16 15 15 15 15 15 15 15 15 15 14 14 14 14 14 13 14 14 14 14 14 15 15 15 15 15 15 15 15
16 16 17 16 16 16 16 16 16 16 16 16 16 16 16 15 15 15 15 15 15 15 15 15 14 14 15 14 14 13 14 14 14 14 14 14 15 15 15 15 15 15 15
16 16 16 17 17 17 17 16 16 15 15 16 16 16 15 15 15 15 15 15 15 15 15 14 14 14 15 14 13 13 13 14 14 14 14 14 15 14 14 15 14 14 14
16 16 16 16 16 16 17 16 16 16 15 15 15 15 15 15 15 15 15 15 15 15 14 14 14 14 15 14 14 13 13 14 14 14 14 14 14 14 14 14 14 14 14
16 16 16 16 16 16 16 16 16 15 15 15 15 15 15 15 15 15 15 15 15 15 14 14 14 14 14 14 14 14 13 13 14 14 14 14 14 14 14 14 14 14 14
16 16 15 15 16 16 15 15 15 15 15 15 15 15 14 14 14 14 15 15 14 14 14 14 14 14 14 14 14 14 14 14 14 14 14 14 14 14 14 14 14 14 14
15 15 15 15 15 15 15 15 15 15 15 15 15 15 15 14 14 14 14 14 14 14 14 14 14 14 14 14 14 14 14 14 14 14 14 14 14 14 14 14 14 14 14
15 15 15 15 15 15 15 15 14 14 14 14 14 14 14 14 14 14 14 14 14 14 14 14 14 14 14 14 14 14 14 14 14 14 14 14 14 14 14 14 14 14 14
16 16 15 15 14 14 14 14 14 14 14 14 14 14 14 14 14 14 13 14 14 14 14 14 14 14 14 14 14 14 14 14 14 14 14 14 13 13 13 13 13 13 14
16 16 16 15 15 15 14 14 14 14 14 14 14 14 13 13 13 13 13 13 13 13 13 13 13 13 14 14 14 14 14 13 14 14 13 13 13 13 13 13 13 13 13
14 16 16 16 15 15 14 14 14 14 14 14 14 14 13 13 13 13 13 13 13 13 13 13 13 13 13 13 13 13 14 14 13 13 13 13 13 13 13 13 13 13 13
15 14 15 16 15 15 15 14 14 14 14 14 14 14 14 13 13 13 13 12 13 13 13 13 12 13 13 13 13 13 13 14 13 13 13 13 13 13 13 13 13 13 13
14 15 14 13 13 14 15 15 15 14 14 14 14 13 13 14 13 13 13 12 12 12 12 12 12 12 12 13 13 13 13 13 13 13 12 13 13 13 13 13 13 13 13
10 13 14 14 13 13 12 14 14 14 14 14 14 14 13 13 13 13 13 12 12 12 12 12 12 12 12 12 12 13 13 13 13 13 13 13 13 13 13 13 13 13 13
6 8 10 12 13 12 11 11 12 13 13 13 13 13 13 13 13 12 12 11 11 12 12 12 12 12 12 11 12 12 12 12 12 12 13 13 13 13 13 13 13 12 12
5 6 6 8 9 10 11 10 10 10 12 12 12 12 12 12 12 12 11 11 11 11 11 11 11 12 12 12 11 11 12 12 12 12 12 13 13 12 12 13 13 13 13
4 4 3 4 5 6 7 8 8 9 9 10 10 11 11 11 11 11 11 10 10 10 10 11 11 11 11 11 10 10 10 11 11 11 12 12 12 12 12 12 12 13 13
4 4 4 3 3 4 5 7 8 9 8 8 8 9 9 9 10 10 9 9 9 9 10 10 10 10 11 11 10 10 9 10 11 12 11 12 12 11 12 11 11 12 12
3 3 4 4 3 3 3 4 5 6 6 7 7 7 8 8 9 9 8 8 8 9 9 9 9 9 9 10 9 9 9 9 10 11 11 11 12 12 11 12 12 12 11
0 2 3 3 4 3 3 2 1 3 4 5 6 6 7 8 7 8 8 8 8 8 8 8 8 9 8 9 9 9 9 9 9 8 9 10 10 11 11 11 11 11 12
-1 -0 0 1 2 3 3 2 1 1 1 3 5 6 5 6 7 7 7 7 8 8 7 8 8 8 8 8 8 8 8 7 7 8 8 8 8 9 11 11 11 11 11
Height
1528 1529 1530 1532 1534 1535 1536 1537 1538 1539 1540 1540 1541 1541 1541 1542 1543 1544 1545 1545 1545 1546 1546 1546 1546 1546 1547 1547 1547 1548 1548 1549 1549 1549 1550 1550 1551 1552 1553 1554 1555 1556 1557
1529 1530 1531 1533 1534 1535 1537 1538 1539 1540 1541 1541 1542 1543 1543 1544 1544 1545 1546 1546 1546 1547 1547 1547 1548 1548 1548 1548 1548 1549 1550 1550 1550 1551 1552 1552 1552 1554 1555 1556 1557 1558 1559
1530 1531 1532 1534 1536 1537 1538 1539 1540 1541 1542 1542 1543 1544 1545 1545 1546 1546 1547 1547 1547 1548 1548 1549 1549 1550 1550 1550 1550 1551 1551 1551 1552 1553 1554 1554 1555 1556 1557 1558 1559 1560 1560
1531 1532 1533 1535 1536 1538 1540 1540 1541 1542 1542 1543 1544 1545 1546 1546 1547 1547 1548 1548 1549 1550 1550 1551 1551 1552 1552 1552 1552 1553 1553 1553 1554 1554 1555 1556 1557 1558 1559 1559 1561 1562 1563
1532 1533 1535 1536 1538 1539 1540 1541 1542 1543 1543 1544 1544 1546 1546 1547 1548 1548 1548 1549 1550 1551 1551 1552 1553 1553 1553 1553 1554 1555 1555 1555 1555 1556 1556 1557 1558 1559 1561 1562 1562 1564 1565
1534 1534 1536 1537 1538 1539 1540 1541 1542 1543 1543 1544 1545 1546 1547 1547 1548 1549 1549 1550 1551 1551 1552 1552 1553 1554 1555 1555 1555 1555 1556 1556 1557 1557 1558 1559 1560 1561 1562 1563 1564 1566 1567
1535 1536 1537 1537 1538 1539 1540 1540 1542 1542 1543 1544 1545 1546 1547 1547 1548 1549 1550 1550 1551 1552 1552 1552 1554 1554 1555 1556 1556 1556 1557 1557 1558 1558 1559 1560 1560 1562 1563 1564 1565 1567 1568
1535 1536 1538 1538 1539 1539 1540 1540 1541 1542 1543 1544 1544 1545 1546 1547 1548 1548 1549 1550 1550 1551 1552 1553 1553 1554 1555 1556 1556 1556 1557 1558 1559 1559 1560 1560 1561 1562 1563 1565 1566 1568 1569
1535 1536 1537 1538 1539 1540 1540 1540 1541 1541 1542 1543 1543 1544 1545 1546 1547 1547 1548 1549 1550 1551 1552 1553 1553 1554 1554 1556 1556 1556 1557 1558 1559 1560 1560 1561 1561 1561 1563 1565 1567 1569 1570
1536 1537 1537 1538 1538 1539 1539 1539 1540 1540 1541 1542 1542 1543 1544 1544 1545 1546 1547 1548 1549 1550 1551 1552 1553 1554 1554 1555 1556 1556 1557 1558 1559 1560 1561 1562 1562 1563 1564 1566 1568 1570 1571
1535 1536 1537 1537 1537 1537 1538 1538 1538 1539 1539 1540 1540 1541 1542 1542 1543 1545 1545 1546 1547 1548 1550 1551 1552 1553 1554 1555 1555 1556 1557 1558 1559 1560 1561 1562 1563 1564 1565 1567 1568 1570 1570
1534 1535 1536 1536 1537 1537 1536 1537 1537 1538 1538 1538 1538 1539 1539 1540 1541 1542 1543 1544 1546 1546 1548 1549 1550 1551 1552 1554 1554 1555 1556 1558 1559 1560 1561 1561 1562 1564 1566 1567 1568 1569 1570
1534 1534 1534 1535 1535 1535 1535 1535 1535 1536 1536 1536 1537 1537 1537 1537 1538 1539 1541 1542 1543 1545 1546 1547 1548 1549 1550 1552 1553 1554 1555 1557 1558 1559 1560 1561 1562 1564 1565 1566 1567 1568 1569
1533 1533 1533 1533 1533 1533 1533 1533 1533 1533 1534 1534 1535 1535 1535 1535 1536 1537 1538 1539 1541 1542 1543 1545 1546 1547 1549 1550 1551 1552 1554 1555 1556 1558 1559 1560 1561 1562 1564 1565 1566 1567 1568
1531 1531 1530 1530 1530 1530 1530 1531 1531 1531 1531 1532 1532 1533 1533 1534 1534 1535 1536 1537 1538 1539 1541 1542 1544 1545 1546 1548 1549 1550 1551 1553 1554 1556 1557 1558 1559 1560 1561 1563 1565 1566 1566
1529 1529 1529 1528 1528 1528 1528 1528 1528 1528 1529 1529 1529 1530 1531 1531 1532 1533 1534 1535 1536 1537 1538 1539 1540 1542 1543 1544 1546 1547 1549 1550 1552 1553 1555 1556 1557 1558 1559 1560 1562 1563 1563
1523 1523 1526 1526 1525 1524 1524 1525 1525 1526 1526 1526 1527 1527 1527 1528 1528 1529 1530 1532 1533 1534 1534 1535 1536 1537 1539 1540 1542 1543 1545 1547 1548 1550 1551 1552 1555 1556 1556 1557 1558 1559 1559
1517 1519 1521 1521 1523 1523 1522 1522 1522 1522 1522 1523 1524 1524 1524 1524 1525 1525 1526 1527 1529 1530 1531 1531 1532 1533 1534 1535 1537 1539 1541 1543 1545 1546 1547 1549 1550 1552 1553 1554 1555 1556 1557
1515 1514 1515 1516 1517 1519 1521 1521 1519 1519 1519 1519 1520 1520 1520 1520 1520 1521 1522 1523 1524 1525 1526 1526 1527 1528 1529 1530 1532 1533 1535 1537 1539 1541 1542 1544 1546 1548 1549 1551 1552 1554 1554
1516 1513 1512 1512 1512 1514 1515 1517 1517 1516 1516 1516 1516 1516 1516 1516 1515 1516 1517 1518 1518 1519 1521 1521 1522 1523 1524 1526 1527 1527 1529 1530 1532 1534 1536 1539 1541 1543 1544 1546 1548 1549 1551
1516 1511 1509 1509 1509 1509 1511 1512 1513 1514 1513 1512 1512 1512 1512 1511 1510 1510 1511 1513 1514 1514 1515 1516 1517 1518 1519 1520 1521 1522 1522 1524 1525 1527 1529 1532 1534 1537 1539 1542 1543 1545 1545
1519 1517 1513 1511 1509 1507 1508 1509 1509 1509 1509 1508 1508 1507 1507 1506 1505 1506 1506 1508 1509 1510 1510 1512 1513 1514 1514 1515 1516 1518 1517 1518 1518 1521 1523 1525 1527 1530 1533 1536 1537 1538 1540
1520 1518 1517 1515 1512 1509 1506 1505 1505 1506 1505 1503 1504 1502 1501 1500 1500 1500 1501 1502 1503 1504 1505 1507 1508 1509 1510 1511 1512 1514 1514 1512 1513 1514 1516 1519 1521 1524 1527 1530 1532 1534 1536
1523 1521 1519 1516 1513 1510 1506 1503 1502 1503 1501 1500 1498 1496 1496 1495 1494 1493 1494 1496 1497 1498 1500 1501 1503 1504 1505 1506 1507 1509 1510 1510 1511 1510 1511 1513 1515 1517 1520 1522 1524 1526 1529
1524 1520 1518 1515 1513 1510 1507 1505 1501 1498 1495 1495 1493 1491 1489 1489 1489 1488 1488 1489 1491 1492 1493 1495 1497 1499 1499 1501 1502 1504 1505 1506 1507 1508 1507 1509 1510 1511 1513 1514 1517 1519 1522
1525 1520 1517 1513 1510 1508 1505 1502 1499 1495 1493 1489 1487 1485 1484 1484 1483 1483 1483 1484 1484 1486 1487 1489 1491 1492 1494 1495 1497 1498 1499 1501 1501 1504 1504 1504 1505 1506 1508 1509 1509 1511 1515
Wind_Speed
8 9 10 12 12 10 11 14 12 11 10 9 10 9 9 10 9 9 9 9 9 6 3 2 4 5 6 7 8 9 9 6 7 10 12 13 13 12 13 15 16 17 17
9 11 11 12 12 11 13 14 11 11 10 9 9 9 9 8 8 7 7 5 5 5 5 5 6 7 8 10 10 10 10 9 9 9 11 13 15 15 16 14 15 16 15
7 11 11 11 12 11 12 12 11 10 9 8 8 8 8 7 7 6 6 7 7 8 9 10 9 10 10 10 10 10 11 11 11 11 12 14 18 16 16 14 14 16 16
5 10 10 10 11 11 10 10 9 9 8 8 8 8 7 6 6 6 5 5 7 9 8 6 8 9 9 10 10 11 12 12 11 11 11 13 17 16 15 16 16 15 14
8 9 9 9 9 10 9 9 9 8 8 7 8 8 8 6 6 5 5 5 5 7 5 5 7 7 8 10 11 10 10 10 9 9 10 12 14 15 14 14 14 11 12
7 7 7 7 8 8 8 8 8 8 8 8 8 9 9 8 7 7 5 4 5 6 5 5 7 6 6 9 11 10 8 6 7 8 9 12 12 13 14 12 10 10 13
1 5 6 6 6 7 7 8 8 9 9 9 9 9 10 10 9 8 7 6 5 6 5 6 6 3 5 10 12 12 9 6 7 9 8 8 10 11 12 12 12 13 13
3 3 4 3 3 4 6 6 7 8 9 10 10 10 11 11 11 11 10 8 7 7 6 6 6 4 4 9 15 15 12 7 6 8 7 6 9 12 12 13 14 15 10
8 7 5 6 7 7 7 8 9 9 9 10 11 12 12 12 13 13 12 11 9 9 8 7 7 5 5 8 15 16 14 10 8 8 6 3 2 12 15 12 13 11 8
9 9 8 7 8 8 7 8 7 8 9 11 12 13 13 13 13 13 13 13 11 11 10 9 8 7 6 7 11 16 16 15 12 10 7 5 4 10 14 11 8 5 3
13 12 11 12 12 10 7 6 7 7 8 9 11 13 14 15 14 14 13 14 14 13 12 11 9 9 8 9 9 13 15 16 14 12 9 8 7 12 11 9 6 4 1
16 16 15 14 13 11 9 9 8 8 8 10 11 12 14 15 15 15 14 14 14 14 13 13 11 11 11 11 11 11 13 15 14 13 11 6 8 12 11 11 10 7 4
19 19 19 17 15 14 13 12 11 11 10 10 10 11 12 14 17 16 16 16 16 16 16 15 15 14 13 12 13 12 11 12 14 15 12 9 10 11 11 9 9 8 7
17 20 19 20 19 18 15 14 14 14 13 12 12 11 12 13 14 18 17 16 17 16 16 16 16 16 15 15 15 15 14 12 13 15 15 14 12 11 11 11 12 9 10
17 15 17 17 18 17 17 17 17 16 15 14 13 13 12 12 13 14 16 16 15 16 16 17 17 17 18 18 18 18 18 17 14 15 16 15 15 13 13 13 13 12 14
23 19 14 16 16 18 18 18 18 17 16 15 14 15 15 15 15 17 16 18 19 18 19 20 21 20 19 20 20 20 20 20 19 19 19 19 19 17 16 14 14 15 16
23 24 21 17 15 18 19 19 18 18 17 17 16 16 17 18 18 19 18 19 19 20 21 23 22 22 22 22 23 22 22 22 22 21 22 23 20 20 20 18 17 16 17
14 21 24 23 24 21 19 19 19 19 19 18 17 17 18 19 20 21 21 21 22 24 25 24 24 25 25 23 23 25 24 24 24 24 22 25 25 22 24 23 19 17 17
12 14 21 21 23 23 22 21 21 21 21 21 20 19 19 20 21 23 23 22 23 23 23 24 25 25 24 23 23 23 23 26 27 29 29 26 27 25 24 23 20 19 17
20 11 9 14 19 21 20 22 22 22 22 23 22 22 21 21 22 23 23 22 22 22 22 22 22 23 25 25 24 24 23 24 27 30 30 30 28 29 26 24 22 20 18
26 20 18 7 5 13 17 20 20 23 23 23 24 24 24 24 23 24 23 22 22 21 21 22 23 23 23 24 25 28 31 31 28 26 29 32 32 29 27 28 29 28 21
35 33 28 23 16 8 9 15 18 20 21 23 24 25 27 26 24 25 25 24 23 22 21 21 22 22 22 20 23 26 24 25 30 28 28 29 35 34 31 32 33 28 28
36 34 35 32 28 23 14 12 17 21 22 22 26 27 25 25 25 26 27 26 25 24 23 22 21 21 20 20 19 20 8 12 12 18 22 27 30 32 36 35 34 36 34
37 34 32 35 36 32 26 19 15 16 22 24 24 30 27 25 25 27 28 28 27 25 25 23 22 22 21 22 21 21 26 18 6 9 19 22 26 31 36 38 37 36 37
36 37 35 34 36 38 36 31 28 22 18 22 24 24 30 29 27 26 28 29 30 29 28 26 26 25 24 24 23 23 24 26 30 29 21 20 19 20 29 35 35 32 38
34 36 37 36 36 37 38 42 41 36 29 24 21 22 22 22 24 23 23 24 24 26 26 26 25 26 26 26 25 25 26 20 21 26 29 33 32 33 26 29 34 36 35
Wind_Direction
179 164 159 168 166 160 161 158 151 143 132 127 130 130 127 124 125 130 139 143 145 153 158 120 94 85 91 103 111 121 132 131 108 113 121 138 147 138 125 120 125 115 112
166 156 159 169 165 157 157 161 159 156 145 134 136 136 135 131 130 135 139 142 139 136 133 114 100 94 98 108 111 111 115 118 115 116 118 123 131 134 131 127 129 127 126
151 154 161 171 169 160 162 166 169 167 164 158 151 150 144 141 137 134 129 125 117 115 114 114 103 95 100 105 111 115 119 120 119 116 117 122 127 127 131 134 130 124 119
150 157 161 172 176 172 167 167 174 177 176 176 174 175 165 161 153 145 136 124 117 121 131 126 118 104 107 111 112 118 117 115 118 128 121 132 138 131 130 129 129 121 113
134 152 162 169 176 183 185 187 187 189 193 195 193 190 196 188 177 166 148 146 143 156 157 159 150 124 120 131 128 127 122 121 110 126 132 136 145 147 134 138 132 120 115
117 136 162 174 182 190 192 193 197 202 204 204 205 202 205 204 202 194 180 182 181 189 189 184 176 161 142 154 153 145 143 132 137 138 134 141 150 160 163 163 152 135 122
142 142 147 155 171 188 200 207 212 215 216 216 215 214 216 220 217 217 216 218 219 208 205 201 192 194 181 174 176 171 169 156 132 145 138 148 163 172 170 166 154 138 128
236 196 165 185 194 199 207 213 217 219 221 220 222 223 221 225 225 232 233 233 230 218 216 216 214 215 191 181 183 192 184 184 170 166 146 115 168 170 172 156 154 145 137
203 215 243 256 259 252 244 235 232 231 229 228 225 227 232 232 229 232 237 234 234 227 225 225 223 221 197 187 189 199 195 196 200 186 173 125 174 188 176 165 156 150 145
214 219 233 259 274 264 250 244 241 241 240 238 236 234 234 235 234 231 232 235 236 235 234 233 234 228 208 196 197 202 206 210 211 209 208 193 187 154 155 154 158 159 160
228 237 248 268 276 270 253 242 241 244 248 247 245 242 240 236 235 233 233 235 237 236 238 237 238 233 226 209 203 208 208 212 214 211 219 232 213 189 181 169 154 165 145
247 253 261 271 269 265 263 263 262 265 259 252 250 245 243 239 237 235 235 234 235 238 238 237 237 238 233 221 214 217 216 216 215 210 217 227 213 198 201 187 188 194 244
259 260 268 269 267 265 266 267 266 268 268 263 259 249 242 240 234 234 232 231 233 231 234 236 235 238 237 232 223 220 226 226 224 215 218 211 200 218 219 234 233 253 247
268 260 259 261 260 259 260 268 269 270 269 264 261 258 248 247 245 236 233 231 232 238 239 238 242 245 245 239 233 225 229 234 235 226 215 210 207 219 236 238 244 244 255
280 269 259 256 255 253 257 265 270 266 265 262 262 259 256 253 249 246 240 231 226 228 237 243 248 250 250 246 240 235 230 232 232 226 223 217 218 231 249 256 255 260 263
281 286 274 264 261 256 259 265 267 261 259 256 257 259 260 261 257 248 248 243 240 242 241 245 245 251 256 251 248 243 238 235 234 235 232 232 233 233 243 255 264 271 280
271 270 271 284 276 270 267 267 262 258 256 258 257 256 259 260 258 258 254 246 243 244 248 249 247 250 255 250 249 246 243 240 237 234 233 237 239 241 240 246 259 277 289
275 260 262 264 264 272 268 262 259 257 256 257 260 260 259 258 259 256 253 253 251 250 251 251 252 252 250 248 248 248 247 244 239 237 239 240 239 242 241 246 253 266 283
347 278 263 260 259 265 263 265 261 257 257 259 258 261 263 262 259 256 255 254 252 251 250 250 250 250 249 249 249 249 249 248 246 242 240 242 239 242 245 246 252 270 278
28 11 291 271 257 255 258 261 263 264 263 262 264 266 268 268 263 258 254 252 252 250 248 248 250 251 251 250 250 251 252 249 249 249 244 244 244 245 249 246 244 258 271
29 28 24 354 295 255 251 255 264 278 279 273 270 269 270 269 262 257 252 251 250 251 250 248 249 249 249 251 252 254 256 257 255 252 246 244 244 249 249 248 250 253 254
22 20 20 23 19 351 268 257 270 275 288 286 281 277 272 268 260 254 252 250 251 251 248 246 246 250 250 247 247 251 261 260 251 254 253 249 244 243 246 248 248 260 262
15 13 9 5 7 6 354 280 262 264 274 290 293 286 277 270 261 253 251 250 250 251 250 247 245 246 248 246 243 239 232 236 250 244 253 254 251 247 250 249 247 253 254
9 5 0 355 352 351 354 347 337 301 286 281 291 288 279 270 262 250 247 249 251 250 248 248 248 249 249 248 247 242 238 245 261 267 254 256 251 252 250 249 252 249 252
6 1 357 351 345 338 335 340 343 326 302 281 275 288 287 270 261 257 248 246 249 250 250 250 250 251 251 252 250 252 250 248 248 251 270 255 253 253 255 252 251 253 252
360 355 353 350 342 333 329 325 324 332 325 306 273 276 287 287 258 255 250 248 250 249 247 247 248 249 250 252 252 250 252 246 248 250 251 260 262 266 268 261 255 252 247